Location: Tucson
(32.2217°N, 110.9265°W)
Time: 03:34:42
(UTC-07:00)

X-37B - Visible Passes

Search period start: 28 September 2021 00:00
Search period end: 08 October 2021 00:00
Orbit: 381 x 393 km, 45.0° (Epoch: 29 August)

Date Brightness Start Highest point End Pass type
(mag) Time Alt. Az. Time Alt. Az. Time Alt. Az.
29 Sep 3.5 05:18:12 10° N 05:18:33 10° NNE 05:18:55 10° NNE visible
01 Oct 3.3 04:57:03 10° NNW 04:58:43 13° NNE 05:00:24 10° NE visible
02 Oct 2.1 05:34:27 10° NW 05:37:20 33° NNE 05:40:14 10° E visible
03 Oct 2.8 04:38:21 19° N 04:38:49 20° NNE 04:41:13 10° ENE visible
04 Oct 0.8 05:15:22 21° NW 05:17:15 68° NNE 05:20:23 10° ESE visible
05 Oct 3.1 04:20:11 22° ENE 04:20:11 22° ENE 04:21:42 10° E visible
05 Oct 2.0 05:52:48 10° W 05:55:20 22° SW 05:57:52 10° SSE visible
06 Oct 1.0 04:57:28 46° S 04:57:28 46° S 05:00:07 10° SE visible
07 Oct 2.9 05:34:52 10° SW 05:34:59 10° SW 05:35:24 10° SW visible
